User: anonymous   Login
Location: Unspecified
(35.6961°N, 0.0000°E)
Time: 13:30:13
(UTC+00:00)
Language:

CAS-4B - Orbit

View from above orbital plane
View from above orbital plane
View from above satellite
View from above satellite

Ground track
Ground track

The orbit data is extracted from the following two-line orbital elements,

1 42759U 17034B   19176.15088503 -.00000126  00000-0  58436-5 0  9997
2 42759  43.0169 195.3046 0012547 290.7613 140.1548 15.09586314111814
Epoch (UTC): 25 June 2019 03:37:16
Eccentricity: 0.0012547
inclination: 43.0169°
perigee height: 529 km
apogee height: 546 km
right ascension of ascending node: 195.3046°
argument of perigee: 290.7613°
revolutions per day: 15.09586314
mean anomaly at epoch: 140.1548°
orbit number at epoch: 11181

The dashed part of the orbit path shows where the satellite is in the earth's shadow,  

DLR